Theta_e
350 348 346 345 344 344 343 344 343 344 347 349 356 353 351 353 349 345 341 339 339 337 334 334 334 331 331 328 327 325 325 325 324 323 323 325 326 327 327 327 327 329 327
354 347 347 346 346 344 343 344 344 342 344 346 351 356 352 352 350 347 343 339 341 339 335 333 334 330 330 328 327 325 324 324 324 323 323 325 326 326 327 327 328 328 328
354 355 347 353 346 349 346 345 344 345 341 344 349 352 352 352 350 349 344 340 338 339 336 333 333 331 329 328 327 324 324 324 323 322 322 324 325 325 326 327 327 328 328
356 352 347 349 354 350 348 346 344 342 342 339 341 352 350 353 352 348 344 341 339 337 336 335 333 332 329 327 326 324 324 323 322 321 321 322 323 323 324 325 326 326 326
354 354 351 351 354 350 352 351 348 348 345 343 340 348 356 351 352 348 344 345 344 340 338 338 335 334 330 327 325 324 324 323 322 321 321 321 322 322 323 324 324 325 325
352 353 351 354 360 352 350 346 351 348 346 345 340 343 350 353 351 348 345 344 344 341 339 337 333 332 332 328 325 324 323 322 321 320 320 319 320 320 322 322 322 323 324
354 356 350 351 352 351 353 351 351 347 345 349 344 345 351 350 354 353 348 345 344 342 339 338 335 333 331 329 326 325 323 322 321 320 319 318 318 318 319 320 321 321 322
349 350 352 350 353 349 351 351 346 342 346 348 343 340 338 345 347 350 350 346 344 343 339 338 340 331 333 328 327 325 323 321 320 320 318 317 317 316 316 317 319 320 320
348 352 351 352 354 352 343 350 351 344 338 341 346 339 335 332 340 350 348 345 345 342 341 338 341 338 337 328 327 325 322 320 319 319 318 316 315 315 314 315 317 318 318
344 347 354 353 358 350 354 350 350 349 350 343 349 348 349 344 340 337 346 345 347 343 344 340 339 339 338 331 331 327 320 319 318 317 317 315 315 314 313 314 315 316 317
346 345 347 350 355 349 354 357 354 353 350 343 340 348 345 342 349 345 337 340 348 342 342 342 338 338 337 334 329 322 319 317 315 314 314 314 314 313 311 313 314 315 316
340 349 344 348 354 355 353 350 354 352 351 349 342 341 346 344 341 337 340 342 340 343 343 340 340 336 335 334 329 320 317 315 314 313 312 312 312 312 310 311 313 313 315
329 344 344 347 345 353 353 356 354 352 351 347 350 340 348 349 346 342 336 333 341 344 340 341 340 337 333 330 324 319 317 314 313 311 311 311 310 309 308 310 311 311 312
329 336 339 342 343 344 347 354 346 345 348 349 348 349 343 341 347 342 337 337 330 335 333 338 337 335 334 329 325 320 315 313 312 311 310 309 308 307 307 308 308 308 309
330 334 335 337 339 340 346 351 341 346 348 349 349 351 347 348 347 345 346 352 341 328 329 335 332 340 334 328 322 321 316 313 312 310 309 308 306 305 305 306 306 306 307
333 331 331 333 334 336 341 348 341 344 346 343 343 347 348 344 349 349 347 344 343 334 327 331 334 337 337 328 324 325 318 313 311 310 309 307 304 304 304 304 304 305 305
332 330 329 328 328 330 336 343 344 339 342 344 346 344 345 349 344 348 348 346 342 341 335 329 334 337 335 328 325 320 315 315 312 310 309 306 303 303 303 303 303 303 303
331 329 327 325 324 325 330 334 334 335 338 337 340 342 343 343 347 349 347 345 342 345 339 328 329 330 330 331 327 319 320 318 314 311 309 305 303 304 304 302 302 301 301
328 328 326 325 323 323 323 324 327 331 336 339 340 340 341 343 344 345 346 344 342 341 339 332 326 328 328 326 327 322 323 325 316 312 309 306 303 304 303 302 301 300 300
328 327 327 326 325 324 324 323 322 328 334 335 340 340 340 341 343 344 344 344 341 337 335 331 327 323 326 325 326 319 318 321 313 313 314 312 305 304 306 302 301 300 299
329 328 326 326 326 325 323 326 324 325 331 335 337 337 340 339 331 336 343 343 340 333 330 327 323 320 322 321 321 321 318 319 320 317 314 313 308 304 303 301 299 299 299
329 330 328 325 329 324 312 309 316 324 326 330 334 337 340 333 330 320 321 325 336 339 326 324 319 318 321 319 325 322 321 318 312 321 317 314 314 307 301 299 298 299 299
333 332 331 329 329 331 310 307 309 324 326 328 333 336 335 333 331 339 321 318 320 317 321 322 320 318 319 323 324 324 324 320 317 319 318 310 312 305 302 299 299 299 298
331 331 331 331 330 329 310 305 306 323 325 327 330 334 337 337 338 337 339 334 334 326 324 326 324 322 324 327 327 327 327 324 322 317 322 307 311 307 304 301 299 299 298
328 329 328 328 329 329 309 304 309 323 323 326 328 333 336 336 323 311 335 332 327 324 313 315 316 313 310 311 321 324 319 317 313 313 316 311 309 306 305 305 303 299 299
326 324 325 328 322 327 311 304 308 320 322 321 328 332 317 326 312 308 335 328 320 316 317 314 314 309 312 315 311 325 321 315 312 310 315 309 309 305 300 305 306 304 304
Wind_Speed
7 7 7 6 9 8 9 7 7 7 7 8 10 8 9 4 7 6 7 14 13 11 10 9 8 7 9 8 8 10 10 13 15 17 18 18 19 20 20 20 20 20 18
6 7 7 7 6 6 6 7 7 6 8 9 10 9 5 6 9 9 9 10 12 11 10 9 8 6 7 7 7 7 9 12 14 16 17 18 19 20 20 21 20 21 20
8 7 6 4 8 6 7 6 6 6 7 8 10 9 6 6 9 9 9 10 10 11 11 9 8 7 6 6 6 6 8 11 14 15 16 18 19 20 20 21 21 21 21
9 6 8 6 4 6 7 7 7 7 8 8 9 5 6 9 13 11 8 7 10 10 11 11 10 7 6 5 5 5 7 10 13 14 16 18 19 19 20 21 21 23 22
11 9 6 6 5 6 5 5 5 8 8 8 9 7 4 3 10 11 10 10 11 11 9 16 13 10 8 6 4 4 6 9 12 14 15 17 18 20 20 21 22 21 21
9 9 7 4 5 5 8 9 6 3 8 6 10 6 6 6 5 7 11 9 9 9 7 13 9 10 12 10 7 5 5 8 11 13 15 16 18 19 20 21 22 22 21
9 7 7 5 6 6 5 8 6 5 7 9 6 3 3 4 3 6 9 9 10 10 9 12 8 5 8 12 10 7 5 6 10 12 15 16 17 18 19 20 21 21 21
8 8 7 6 7 7 8 5 5 5 9 8 2 7 3 4 5 8 7 9 11 7 10 10 8 11 10 8 10 10 8 6 9 11 14 15 17 18 19 20 20 21 20
7 8 7 7 6 7 7 10 7 7 6 10 6 6 5 6 9 7 12 8 9 7 8 10 10 7 10 9 13 11 10 7 8 11 14 15 17 19 20 20 20 20 20
6 8 9 9 8 8 7 8 9 10 10 11 6 11 12 9 1 4 7 11 7 9 8 8 8 6 7 7 8 14 12 10 9 10 13 15 17 18 20 20 20 20 20
6 7 8 8 8 9 9 8 7 10 10 13 11 5 6 9 7 5 5 6 6 8 7 9 6 6 6 7 11 14 15 12 10 10 13 14 16 19 20 20 20 20 21
8 9 6 6 7 8 10 10 8 11 11 11 10 11 8 5 7 6 3 8 10 8 8 7 6 7 7 5 14 20 17 14 11 10 12 13 15 18 19 20 20 20 21
6 6 4 5 7 7 9 9 8 10 10 12 11 11 9 9 8 5 10 6 7 4 6 7 7 7 8 6 13 19 17 15 12 10 11 12 14 17 19 20 20 20 20
4 2 3 6 9 10 9 8 9 10 12 10 14 12 12 12 9 9 10 4 2 4 2 7 8 7 8 10 16 19 12 15 12 11 11 12 13 16 18 19 19 19 20
5 7 7 7 9 11 10 9 10 10 11 10 11 12 12 11 8 11 10 3 4 4 5 5 5 9 8 11 16 11 12 15 12 11 10 12 13 14 17 19 19 19 20
4 5 6 8 10 11 11 10 11 11 11 11 11 12 11 12 10 9 9 8 4 6 4 3 4 8 9 12 16 12 14 16 12 11 10 11 12 13 16 18 18 18 19
8 8 8 9 10 11 10 11 10 12 14 12 12 13 13 12 10 8 8 9 8 5 7 2 6 10 11 12 12 12 14 11 9 10 10 11 10 12 15 16 17 17 18
9 10 9 9 9 10 10 11 14 14 13 13 14 15 15 10 12 11 8 11 11 9 8 10 9 10 11 11 13 12 11 11 11 12 11 10 8 9 13 16 16 16 17
11 11 11 11 10 10 11 12 14 15 14 13 14 14 15 13 11 10 10 9 9 7 9 9 9 9 10 9 12 10 9 8 11 18 12 10 9 9 14 16 16 16 16
13 12 12 13 12 12 11 12 13 13 14 15 13 13 15 14 13 12 12 13 9 9 9 8 10 10 11 11 9 9 8 7 11 11 11 10 12 10 12 18 17 18 16
13 15 15 14 14 12 10 12 12 12 13 15 15 14 15 16 14 13 10 12 11 9 8 11 10 9 11 12 13 10 10 9 11 9 9 8 9 8 9 14 14 15 16
14 15 15 16 14 12 11 7 7 11 14 15 15 14 15 12 14 12 15 15 13 14 12 12 11 12 14 11 12 12 10 10 10 7 9 6 7 7 7 8 6 6 9
14 15 15 16 15 14 12 11 12 12 13 14 16 14 14 13 15 16 12 15 15 12 14 12 14 14 13 14 13 12 12 10 9 10 9 7 6 7 8 7 6 3 6
15 15 15 16 16 13 12 13 13 14 14 15 16 17 15 16 15 13 13 13 16 15 12 9 12 11 11 14 13 11 10 9 7 9 8 8 7 7 8 6 7 3 3
14 15 15 17 16 14 11 12 11 15 15 16 16 17 16 17 15 12 12 11 12 11 2 8 9 11 14 13 12 10 10 11 10 9 9 8 7 6 5 7 7 8 5
15 14 17 16 17 16 12 12 12 13 15 13 14 16 18 17 12 16 15 13 12 11 10 7 8 11 13 13 14 11 10 11 10 10 9 8 8 7 5 4 4 7 7
Wind_Direction
221 214 227 235 183 198 199 205 241 191 223 238 162 187 203 165 136 121 150 163 161 159 155 146 135 119 106 80 66 50 39 32 23 17 9 5 6 4 357 354 351 348 348
214 218 224 219 238 232 211 213 207 214 237 231 199 176 256 158 151 162 142 163 172 171 165 159 141 133 109 94 84 58 42 30 26 20 11 7 6 4 359 358 356 354 351
208 235 232 224 227 221 247 222 231 206 235 249 256 189 244 167 152 176 170 158 168 187 177 172 164 147 123 103 94 71 54 34 29 22 14 10 5 4 3 359 1 352 355
210 194 226 248 286 230 210 230 216 231 224 241 245 193 212 192 151 184 187 180 163 180 187 185 181 166 145 117 94 87 62 43 34 25 19 10 9 5 5 4 4 353 353
201 223 213 236 304 239 248 229 229 229 234 234 233 216 205 33 189 169 188 210 184 177 181 177 182 181 172 149 115 88 61 51 41 30 24 15 11 5 7 7 7 354 354
201 199 226 205 256 271 264 228 200 258 255 234 240 211 209 211 176 155 203 197 209 210 184 162 181 187 185 169 143 108 72 56 47 36 29 19 14 9 10 10 9 357 356
195 196 242 199 215 248 284 279 302 201 267 257 258 73 276 289 200 203 201 211 207 196 194 178 196 160 178 173 154 131 98 66 53 42 36 20 16 15 11 9 11 359 358
193 200 222 203 215 232 233 253 244 270 255 229 184 213 228 233 228 207 215 218 208 192 197 208 224 161 173 172 154 144 118 80 62 50 44 23 17 18 13 11 12 1 360
226 216 230 245 195 223 234 232 236 228 244 273 255 202 210 226 203 190 211 212 199 194 209 197 216 162 169 155 158 142 123 102 72 55 50 30 20 20 15 15 10 6 0
222 222 222 243 234 251 237 200 225 228 231 253 224 224 248 272 174 175 214 216 185 194 211 203 197 181 165 121 133 130 133 110 84 63 54 37 25 21 17 17 12 11 0
253 248 254 247 241 241 241 246 213 224 233 241 244 247 275 278 266 242 202 202 209 197 204 207 178 175 167 157 142 137 132 117 100 77 60 43 29 22 19 19 15 15 1
188 197 226 249 261 258 251 253 232 230 241 259 242 246 227 233 232 250 244 209 197 201 198 185 193 165 167 188 140 136 131 126 112 90 71 50 34 24 21 21 16 17 6
238 226 186 232 262 246 249 245 240 251 236 242 243 250 231 238 241 230 226 214 217 166 183 169 191 158 162 116 133 137 138 131 122 101 78 56 39 29 25 23 17 17 10
243 281 268 263 267 267 264 269 252 245 247 235 239 244 254 237 229 246 249 207 283 148 153 166 165 166 161 138 143 141 139 137 131 113 88 66 44 35 30 27 19 17 15
245 224 244 270 278 276 270 268 252 246 257 257 246 243 241 252 251 239 259 238 196 176 175 182 161 159 165 120 145 156 145 145 137 120 96 75 53 42 37 31 23 18 18
239 258 260 266 271 272 271 269 263 251 243 256 256 242 239 248 229 234 240 250 216 208 168 161 218 158 163 130 169 150 140 147 143 129 105 83 63 49 44 37 28 23 22
225 237 244 257 265 267 266 272 261 265 269 258 255 266 259 241 244 230 233 231 224 179 226 138 163 154 150 147 167 119 147 152 152 143 117 97 80 61 51 43 34 31 27
227 241 249 251 261 270 275 272 273 270 253 240 261 252 256 257 236 237 226 238 224 209 206 167 165 158 162 149 147 153 169 169 158 157 138 124 110 88 63 51 41 36 33
233 236 241 247 253 261 270 272 271 270 268 246 241 263 260 248 248 235 224 225 228 218 206 164 148 152 165 146 155 160 183 178 150 149 158 151 128 121 81 61 45 39 37
243 245 243 246 252 256 264 271 273 270 269 269 251 240 258 256 248 233 229 219 219 205 162 167 155 156 169 159 165 166 184 185 142 177 179 158 151 127 102 75 47 39 40
248 251 251 248 250 252 253 256 266 272 268 268 266 255 241 242 247 226 221 222 200 196 170 169 165 159 170 171 178 170 190 191 169 173 167 171 165 184 87 68 65 45 45
251 252 252 252 252 251 254 231 250 267 276 279 276 267 261 246 240 210 218 214 208 190 182 176 171 173 178 176 180 177 193 181 182 167 167 186 160 104 78 86 84 52 28
246 245 247 249 251 250 237 234 237 255 258 261 266 268 271 257 242 244 211 210 179 193 189 172 179 179 174 179 178 182 195 179 188 154 173 151 154 128 123 129 134 87 57
247 248 247 247 249 246 230 225 232 253 258 257 256 255 257 257 256 251 233 209 192 188 197 173 185 182 179 171 184 182 170 167 117 146 195 159 163 146 139 137 169 180 111
249 248 249 251 249 250 229 225 231 257 258 252 248 247 248 245 240 200 222 202 196 189 190 198 173 180 158 171 164 165 162 173 168 168 178 155 161 145 165 158 151 201 197
251 251 251 243 241 247 232 217 224 256 259 257 250 245 235 241 216 177 196 188 185 176 161 153 152 130 145 149 154 169 174 181 170 164 184 168 154 151 146 137 121 171 178